sat.trackr.live / text

‹ back to catalog

ONEWEB-0276

NORAD 48994 · 2021-060AD

PAYLOAD ACTIVE UNKNOWN

§ Identity

Operator
Country
UK
Launch date
2021-07-01
Launch site
VOSTO
Launch vehicle
Mass (kg)
RCS (m²)

Purposes: comms

External: N2YO · Heavens-Above · Gunter

§ Orbital elements

Epoch: 2026-09-20T04:23:21.238944Z

Period
109.37 min
Inclination
87.9158°
Eccentricity
0.0002146
Mean motion
13.16593252 rev/d
Perigee alt
1,196.1 km
Apogee alt
1,199.4 km
Semi-major
7,575.9 km
B*
-2.2795e-4
RAAN
209.9154°
Arg perigee
76.7428°
Mean anomaly
283.3942°
Rev number
25,207

§ Raw data

ONEWEB-02761 48994U 21060AD  26263.18288471 -.00000074  00000+0 -22795-3 0  99912 48994  87.9158 209.9154 0002146  76.7428 283.3942 13.16593252252075

JSON: /api/v1/satellites/48994 · /tle

For live sub-satellite position, see the globe view (requires WebGL).

§ Visibility from observer

Set your observer location to see the next 7 days of passes ≥ 10°. The values pass through the URL so the page stays shareable.

No JS? Fill the form by hand. The geolocation button needs JavaScript.